Location: Unspecified
(0.0000°N, 0.0000°E)
Time: 19:38:10
(UTC+02:00)

Tiros 1 despin weight - All Passes

Search period start: 23 April 2018 00:00
Search period end: 03 May 2018 00:00
Orbit: 595 x 643 km, 48.2° (Epoch: 23 April)

Date Brightness Start Highest point End Pass type
(mag) Time Alt. Az. Time Alt. Az. Time Alt. Az.
23 Apr - 06:18:12 10° NW 06:22:49 69° SW 06:27:30 10° SSE visible
23 Apr - 16:47:28 10° SSE 16:49:54 14° SE 16:52:19 10° E daylight
23 Apr - 18:27:11 10° WSW 18:31:19 39° NW 18:35:26 10° NNE daylight
24 Apr - 04:54:23 10° N 04:58:10 24° NE 05:01:59 10° ESE visible
24 Apr - 06:35:44 10° WNW 06:39:36 25° SW 06:43:29 10° S visible
24 Apr - 17:02:34 10° SSW 17:06:43 38° SE 17:10:49 10° ENE daylight
24 Apr - 18:45:39 10° W 18:48:06 15° NW 18:50:33 10° NNW daylight
25 Apr - 05:10:19 10° NNW 05:14:55 67° NE 05:19:35 10° SE visible
25 Apr - 17:19:01 10° SW 17:23:28 72° NW 17:27:51 10° NNE daylight
26 Apr - 03:47:44 10° NNE 03:50:14 14° NE 03:52:45 10° E night (unlit)
26 Apr - 05:27:15 10° WNW 05:31:40 44° SW 05:36:08 10° SSE night (unlit)
26 Apr - 15:55:20 10° S 15:58:49 22° SE 16:02:15 10° ENE daylight
26 Apr - 17:36:32 10° WSW 17:40:12 25° NW 17:43:50 10° N daylight
27 Apr - 04:02:45 10° NNW 04:07:01 37° NE 04:11:20 10° ESE night (unlit)
27 Apr - 05:45:27 10° W 05:48:28 17° SW 05:51:30 10° S night (unlit)
27 Apr - 16:11:10 10° SSW 16:15:35 61° SE 16:19:57 10° NE daylight
28 Apr - 04:19:09 10° NW 04:23:45 79° SW 04:28:26 10° SE night (unlit)
28 Apr - 14:48:50 10° SSE 14:50:52 13° SE 14:52:55 10° ESE daylight
28 Apr - 16:28:03 10° SW 16:32:19 45° NW 16:36:32 10° NNE daylight
29 Apr - 02:55:35 10° N 02:59:07 22° NE 03:02:40 10° E night (unlit)
29 Apr - 04:36:32 10° WNW 04:40:31 28° SW 04:44:33 10° S night (unlit)
29 Apr - 15:03:37 10° SSW 15:07:43 34° SE 15:11:43 10° ENE daylight
29 Apr - 16:46:14 10° W 16:49:05 17° NW 16:51:54 10° N daylight
30 Apr - 03:11:20 10° NNW 03:15:51 58° NE 03:20:25 10° SE night (unlit)
30 Apr - 04:56:05 10° WSW 04:57:22 11° SW 04:58:38 10° SSW night (unlit)
30 Apr - 15:19:57 10° SW 15:24:27 83° NW 15:28:53 10° NE daylight
01 May - 01:49:13 10° NNE 01:51:10 12° NE 01:53:07 10° ENE night (unlit)
01 May - 03:28:09 10° NW 03:32:35 49° SW 03:37:07 10° SSE night (unlit)
01 May - 13:56:29 10° S 13:59:47 20° SE 14:03:03 10° E daylight
01 May - 15:37:18 10° WSW 15:41:11 29° NW 15:45:01 10° N daylight
02 May - 02:03:52 10° NNW 02:07:57 32° NE 02:12:06 10° ESE night (unlit)
02 May - 03:46:08 10° W 03:49:23 19° SW 03:52:40 10° S night (unlit)
02 May - 14:12:08 10° SSW 14:16:34 54° SE 14:20:55 10° NE daylight
02 May - 15:56:57 10° WNW 15:57:59 11° NW 15:59:01 10° NW daylight
